Theta_e
319 318 317 317 315 315 315 315 315 314 314 314 314 314 313 313 314 315 316 315 315 315 316 316 319 320 317 308 305 321 339 339 321 312 308 307 307 305 300 302 303 301 305 307 308 307 307
319 318 317 316 315 314 313 314 314 314 314 314 313 313 312 313 314 315 315 315 315 315 315 317 321 320 312 301 316 327 319 316 312 308 309 309 309 309 305 303 300 305 306 306 306 305 304
317 316 315 314 315 313 313 313 313 312 313 314 314 313 313 313 314 315 314 314 314 315 316 319 323 319 311 306 317 322 317 311 312 311 310 313 314 308 306 304 308 308 302 303 305 305 302
314 314 313 314 313 312 312 312 312 312 312 313 313 312 312 313 313 314 314 314 313 315 318 323 322 316 306 315 317 316 319 314 315 314 315 316 314 309 305 309 308 303 301 295 303 306 305
314 313 313 313 312 312 312 312 312 311 311 312 312 312 312 312 313 313 313 312 315 317 320 323 316 311 306 320 315 317 318 318 315 316 315 318 312 306 308 301 298 299 295 297 301 307 305
313 313 312 312 312 312 311 311 311 311 311 311 312 311 311 311 312 312 311 312 316 319 320 322 317 307 312 312 315 317 315 319 314 312 312 309 306 302 301 296 291 295 296 297 298 303 304
313 312 312 312 311 311 311 311 310 310 310 311 311 311 310 310 311 311 308 307 309 310 311 308 308 309 311 318 319 313 315 315 315 309 301 305 299 296 300 302 303 302 301 299 303 306 303
312 312 312 311 311 311 311 310 310 309 310 310 309 311 311 310 310 310 307 307 306 305 299 309 311 315 317 318 311 313 314 308 309 301 304 301 298 304 307 307 305 303 300 298 304 308 304
312 312 312 312 312 311 311 311 311 310 310 310 310 310 310 310 309 310 308 308 310 309 300 306 308 308 313 316 310 311 312 308 307 303 301 298 303 309 307 305 304 301 300 300 300 304 303
311 311 311 312 311 311 310 310 309 309 310 310 309 309 310 309 308 306 306 311 309 310 296 303 306 308 310 314 308 314 315 309 306 304 303 301 307 307 305 304 305 298 305 305 303 298 292
310 310 310 311 310 310 310 310 309 309 309 309 309 309 309 308 301 304 310 312 308 306 288 310 308 313 310 309 307 307 314 309 304 305 304 301 303 303 303 305 306 302 307 303 304 300 294
309 310 310 310 311 310 310 309 309 310 309 309 309 309 308 305 303 308 311 309 305 294 289 306 309 305 304 308 309 308 307 310 309 305 306 304 309 307 306 309 308 309 305 301 301 297 290
308 308 309 309 310 310 309 309 309 309 309 309 308 308 305 304 300 306 308 304 291 288 304 303 305 306 305 304 305 306 302 300 299 295 297 303 304 307 309 304 305 303 294 290 289 289 289
308 307 307 307 309 309 309 309 308 309 309 308 307 306 305 306 307 306 306 296 286 296 298 306 306 306 302 304 304 305 301 297 302 301 297 295 295 304 308 303 300 299 297 291 286 288 292
308 307 307 307 307 308 309 308 308 308 308 306 305 302 304 309 309 308 299 288 290 296 301 302 301 301 301 304 304 303 302 299 302 303 296 295 297 307 308 307 304 299 296 301 295 295 292
308 307 307 307 308 307 308 308 309 308 307 306 298 298 303 310 313 307 295 291 295 302 303 301 294 300 297 301 301 300 301 305 303 306 305 301 295 305 307 307 305 302 305 295 294 287 286
309 308 308 308 307 308 308 308 309 308 306 304 298 300 310 313 312 300 290 293 298 302 303 300 297 296 297 299 301 300 301 306 307 306 305 303 298 300 304 301 300 298 296 298 298 295 289
309 309 308 308 307 308 308 308 308 308 305 302 300 294 310 313 298 299 294 298 299 301 304 302 301 299 298 299 299 299 299 304 311 309 303 304 299 295 299 306 307 303 299 298 292 293 296
308 309 308 307 307 307 308 308 308 308 306 298 295 298 308 311 292 294 299 300 302 301 301 300 299 301 301 298 296 301 301 307 308 308 304 304 296 293 297 301 304 300 302 301 299 300 296
307 308 307 306 306 307 307 307 307 307 307 299 295 292 299 304 302 297 295 296 296 303 302 304 302 302 299 297 300 298 299 305 307 307 317 311 301 297 293 297 302 299 302 301 299 293 294
307 306 306 305 305 306 306 306 307 306 307 300 296 294 299 292 297 298 298 298 297 297 302 302 300 301 297 294 296 297 300 302 305 309 309 306 298 303 302 305 305 304 303 302 298 301 296
305 305 304 304 305 305 306 305 306 306 306 296 292 294 297 295 297 296 296 295 296 299 300 299 297 302 301 296 297 296 300 299 300 307 304 307 297 303 301 305 303 301 304 305 303 304 302
305 304 304 304 304 304 305 305 306 306 304 296 300 299 297 295 294 292 293 294 295 297 300 301 300 298 299 301 305 304 303 302 302 302 300 303 300 299 294 302 302 297 302 304 305 306 303
304 304 304 304 304 304 304 305 305 307 305 298 298 297 293 289 292 292 294 296 296 297 296 299 301 298 304 309 308 309 303 302 302 301 302 301 300 300 294 297 291 300 308 309 307 308 309
304 304 304 304 304 304 304 304 305 306 307 300 300 297 293 287 292 292 294 294 296 297 297 299 301 306 309 306 300 297 296 298 302 302 300 308 304 299 293 295 298 303 306 305 303 303 312
304 304 304 303 303 304 304 304 305 306 307 302 300 302 295 289 288 294 291 294 291 294 296 299 304 306 308 304 299 292 290 296 295 297 302 308 308 304 296 293 291 301 312 315 310 301 312
303 303 303 303 303 303 304 304 305 305 306 301 298 305 299 290 293 293 291 291 296 294 292 297 298 299 309 300 295 295 294 301 294 293 294 301 303 299 299 295 299 309 313 314 298 299 315
302 303 303 303 303 302 304 304 304 305 305 303 298 303 299 294 295 297 298 294 294 294 289 296 295 297 300 296 296 298 296 299 297 300 298 300 297 295 297 294 293 314 310 303 307 315 318
302 302 302 302 302 302 302 303 304 304 305 304 297 302 306 296 295 301 300 301 300 298 293 297 297 295 299 290 293 294 298 301 299 293 303 300 303 299 300 299 311 315 311 314 315 317 318
Wind_Speed
10 12 14 15 15 15 16 17 17 18 18 19 20 21 22 23 23 21 21 21 21 21 19 16 12 7 4 3 13 5 8 7 7 5 9 10 7 7 7 7 9 8 15 13 12 10 5
12 12 13 13 14 15 16 17 18 18 18 19 20 22 23 23 23 22 22 22 21 20 18 15 9 3 3 7 11 12 10 7 9 8 8 9 10 10 9 9 6 11 12 11 10 11 5
11 13 13 13 13 15 16 16 17 19 19 19 20 21 22 23 23 23 23 23 22 20 18 12 6 5 6 19 2 7 13 8 9 9 9 14 15 6 7 10 11 9 9 9 6 7 5
10 10 10 11 13 14 16 17 18 19 19 18 19 21 23 24 24 25 25 25 24 21 14 8 4 5 10 9 13 16 12 9 10 11 13 13 10 8 4 9 11 9 7 5 9 9 10
10 10 11 11 12 13 15 16 18 19 20 21 21 22 24 25 26 26 26 29 24 17 7 4 4 2 11 10 6 11 15 9 10 10 11 14 5 6 5 5 7 6 7 9 13 13 8
8 9 10 11 13 13 15 16 18 19 20 21 21 23 24 26 26 26 28 27 10 6 4 7 8 4 8 9 8 12 8 9 10 11 8 5 2 2 4 1 8 10 6 9 11 12 13
9 9 10 11 11 13 15 17 18 19 20 22 23 24 25 27 28 24 16 7 2 2 4 9 7 7 16 9 5 8 9 8 8 5 6 7 3 8 11 12 15 12 11 14 12 5 8
9 9 10 11 13 14 14 15 17 19 21 21 24 25 27 30 30 29 4 2 6 6 11 14 22 22 26 20 12 9 10 9 7 7 7 6 11 11 14 15 15 16 9 10 9 11 4
9 10 10 11 13 13 15 15 17 18 19 21 22 24 27 31 34 9 6 11 8 9 5 12 23 16 19 13 15 9 7 11 8 8 9 11 11 16 17 16 13 10 2 8 8 13 6
9 10 10 11 11 13 15 17 18 19 19 20 22 23 25 33 7 8 6 12 10 8 4 10 9 10 13 15 16 10 15 10 9 12 11 9 18 17 15 13 10 5 3 8 12 7 4
10 10 10 9 9 11 13 15 17 18 19 20 22 23 23 18 10 6 8 14 9 4 5 4 11 6 12 15 2 18 12 10 15 12 8 14 14 11 16 10 9 7 5 5 8 9 4
10 11 11 12 11 12 12 13 16 17 18 20 22 23 21 10 4 12 14 11 4 0 9 6 6 8 10 17 21 3 12 9 9 11 13 12 11 15 18 11 9 4 5 7 4 3 4
7 9 10 12 13 12 13 14 16 17 19 21 23 24 17 7 7 6 12 5 2 4 9 6 8 7 9 13 17 18 11 12 11 10 16 15 17 14 11 8 5 5 1 3 5 4 9
8 9 10 11 11 11 13 16 17 18 19 22 25 30 9 10 10 10 3 3 5 9 12 13 15 10 12 10 15 16 11 14 12 11 3 11 13 17 12 11 8 8 10 8 7 6 6
8 8 9 11 11 13 13 14 16 17 20 20 24 5 6 7 13 6 1 4 7 7 9 10 20 11 7 9 11 16 17 13 15 17 15 5 18 15 15 6 11 9 6 10 4 6 3
10 9 10 10 11 12 13 14 16 16 19 19 8 6 8 8 13 5 2 5 7 10 15 13 11 11 11 11 7 11 14 12 15 17 17 14 12 17 11 12 10 12 7 3 1 5 5
12 12 10 10 10 10 12 14 15 16 19 26 3 5 6 10 5 3 5 6 9 17 17 7 7 15 18 18 13 12 7 16 12 15 14 15 8 23 11 6 15 4 5 3 5 7 7
12 13 11 9 11 10 10 11 12 14 19 9 4 4 2 6 3 4 8 8 7 17 20 16 15 15 15 19 15 12 15 12 16 18 18 12 10 9 17 20 10 11 12 10 7 6 3
13 13 12 9 9 9 9 10 9 11 10 5 4 5 5 4 4 7 11 19 19 18 18 18 16 15 17 17 8 5 13 18 23 13 17 11 6 7 10 9 6 9 8 7 5 5 7
13 12 9 8 9 10 7 7 6 8 9 4 4 4 3 3 4 7 10 13 16 14 18 17 19 17 18 16 10 14 18 17 23 24 14 17 8 14 13 11 5 3 6 7 8 4 6
9 8 8 9 9 10 7 6 5 6 7 3 4 6 4 2 6 8 9 10 14 15 16 19 11 15 17 15 15 17 16 20 23 22 6 8 8 8 12 13 13 8 9 11 9 8 8
9 8 9 10 9 8 8 7 5 6 7 3 4 5 7 9 7 9 9 8 14 15 14 16 13 17 19 16 17 13 10 14 15 9 8 8 4 7 8 13 18 15 15 11 9 7 6
10 10 10 8 8 7 7 7 6 5 1 4 5 5 5 5 5 6 7 11 15 17 11 12 17 17 20 16 23 24 11 11 10 5 11 6 3 5 7 7 8 14 17 16 9 9 7
11 10 9 9 9 9 7 7 7 7 5 4 5 4 4 6 7 10 15 15 14 15 6 15 14 13 12 26 27 18 16 17 16 9 9 13 7 2 6 4 13 6 9 10 12 15 7
12 11 10 9 8 10 9 8 9 8 7 4 5 2 3 6 9 14 16 15 13 16 9 10 18 8 16 9 8 9 10 10 21 17 15 9 8 5 6 8 7 12 11 6 3 5 18
11 12 11 9 8 7 8 9 9 8 7 4 6 2 2 4 8 15 17 14 9 8 8 7 11 11 6 3 4 6 11 14 9 5 13 8 7 7 2 9 16 1 3 7 3 4 11
9 10 10 10 8 8 9 9 8 7 5 3 4 3 1 5 13 14 9 10 9 7 7 5 8 8 5 3 4 8 9 11 17 11 12 4 4 8 5 7 5 2 2 5 8 9 6
8 8 8 7 8 7 7 7 7 7 7 5 5 5 4 5 11 16 17 17 11 7 6 4 6 5 4 1 3 6 8 12 9 14 14 8 7 5 4 3 7 1 4 6 7 11 19
9 8 8 7 7 7 8 8 9 10 9 5 4 6 2 4 9 19 20 19 18 16 1 3 1 3 3 4 5 10 9 4 3 11 8 5 9 10 10 11 9 11 5 7 7 19 19
Wind_Direction
22 21 17 12 10 7 5 3 1 359 354 352 350 347 343 338 334 329 325 322 320 320 317 314 311 304 269 227 247 184 130 118 142 203 212 225 248 248 257 262 269 262 262 267 277 297 223
22 21 12 10 10 8 5 2 359 355 352 350 347 344 340 335 330 327 323 319 316 314 312 310 300 265 239 253 248 160 150 155 201 186 217 236 244 234 248 258 256 265 280 256 269 287 312
13 4 4 4 8 6 3 0 357 355 351 347 344 339 336 332 329 325 322 317 314 308 309 302 275 223 258 239 161 162 163 183 217 185 215 234 244 266 293 303 270 291 291 304 298 259 261
12 9 7 7 9 5 1 357 354 352 349 345 342 338 334 330 328 324 320 315 307 301 301 286 183 235 252 254 255 256 237 183 209 201 229 258 272 265 280 305 322 302 320 313 272 263 256
7 3 2 5 7 4 359 356 353 349 346 344 340 336 332 328 326 323 320 311 301 287 245 139 176 227 264 268 193 234 245 194 199 227 237 251 312 237 315 297 318 299 232 252 272 251 202
6 6 5 2 1 359 355 353 351 348 345 343 338 334 330 326 323 324 322 301 283 312 207 187 261 277 262 239 201 228 189 213 193 216 236 261 347 295 314 280 239 253 259 270 254 263 172
3 1 359 359 357 355 351 349 347 345 343 341 338 333 328 325 322 324 338 345 9 58 246 224 207 243 299 222 266 193 221 222 219 168 216 246 180 232 225 234 241 267 277 277 281 303 140
351 351 349 348 347 345 343 344 343 342 340 339 337 332 329 325 321 319 271 265 19 265 293 246 249 247 261 273 269 188 187 199 215 194 205 257 225 233 241 245 245 256 280 288 307 338 90
339 335 332 334 339 339 338 338 341 341 339 337 335 333 330 325 319 312 299 290 344 337 281 272 230 229 232 240 250 207 211 204 206 208 212 215 244 222 245 262 267 265 285 310 292 313 325
336 332 333 341 341 336 338 337 337 338 336 334 332 332 333 333 333 337 286 360 326 3 296 267 196 231 213 229 258 220 203 197 218 220 220 232 237 253 241 245 257 263 299 289 290 325 275
331 330 324 327 330 335 333 333 332 333 331 330 328 330 332 327 298 298 317 325 320 30 326 167 162 156 166 197 147 210 225 204 215 228 191 234 242 249 250 233 230 234 290 268 277 313 309
324 329 327 325 322 329 330 329 327 326 325 324 323 323 332 322 248 251 297 305 352 7 250 277 123 157 164 203 225 230 205 213 210 241 252 245 225 233 241 245 206 266 276 299 315 43 348
310 320 326 329 327 323 327 327 327 326 323 321 320 314 307 278 239 334 325 330 6 231 296 264 161 180 211 198 206 220 209 228 198 210 246 267 263 257 250 225 235 171 171 327 344 341 247
297 318 326 324 319 323 325 325 325 325 322 322 321 309 252 217 225 261 288 358 233 268 237 314 319 213 193 218 199 211 216 212 217 215 217 232 261 253 246 197 177 202 161 162 206 220 261
279 298 310 322 325 324 322 321 320 321 318 321 317 294 269 222 216 218 298 199 205 209 269 4 337 323 267 212 215 196 221 218 211 198 223 235 233 260 229 210 146 248 235 197 194 275 345
274 287 298 311 316 322 319 320 318 320 317 322 325 291 259 224 177 154 187 251 238 258 310 353 318 305 313 295 237 199 200 218 222 207 200 245 276 272 276 227 196 176 199 193 342 247 240
267 269 277 292 303 310 317 321 324 327 327 318 272 283 283 137 121 118 216 217 266 274 284 279 280 290 304 306 311 324 282 223 210 204 201 212 193 268 283 263 203 178 230 216 146 159 191
268 261 265 277 298 309 313 320 329 333 335 336 295 261 185 95 116 215 232 260 277 284 295 289 295 298 276 289 297 307 293 283 260 202 216 206 194 235 257 267 240 172 189 180 145 275 216
271 263 259 272 289 298 307 322 328 331 355 321 274 274 284 115 231 236 256 264 268 267 262 275 273 280 282 285 302 280 299 300 302 296 201 207 222 223 281 302 321 217 197 180 171 144 218
265 254 247 266 284 292 291 311 317 324 334 317 283 280 213 146 237 260 281 289 291 292 292 286 267 272 281 278 253 270 281 292 309 302 287 175 175 198 219 238 230 221 184 206 157 158 210
264 241 252 262 277 283 279 296 305 310 331 296 247 257 314 283 229 272 258 264 285 294 296 293 311 266 261 277 276 260 269 288 294 296 264 142 187 176 220 210 248 260 274 214 211 203 177
245 252 270 272 276 275 273 285 302 293 320 241 296 351 345 303 303 306 309 304 295 290 292 298 290 317 333 264 249 261 271 267 268 339 351 304 215 165 221 218 228 253 270 264 221 260 207
250 262 257 249 267 278 286 287 300 287 8 282 21 327 290 300 296 302 274 283 289 283 298 317 332 327 305 303 331 297 267 262 243 307 303 303 332 140 238 222 217 247 233 252 219 213 218
252 254 250 253 261 263 268 286 285 272 230 295 299 330 288 282 291 286 293 291 296 302 316 303 319 302 301 313 316 308 254 265 265 250 231 274 262 210 216 176 229 239 199 248 259 203 154
241 251 246 246 259 267 260 274 282 274 255 260 281 302 303 286 290 286 283 293 331 299 309 326 300 311 320 293 318 274 251 258 259 249 247 220 229 254 179 207 244 239 256 227 104 250 153
250 240 239 238 257 275 265 265 276 274 254 247 261 185 270 287 242 261 333 316 299 315 316 287 319 313 294 21 270 243 238 230 240 226 226 232 225 215 189 204 229 120 122 262 95 68 6
242 245 242 245 243 271 264 255 267 278 231 227 276 299 261 261 261 268 284 301 310 316 305 313 334 319 297 85 282 248 277 220 232 221 213 155 98 198 225 232 249 108 272 276 117 198 38
234 244 241 247 239 253 271 259 267 269 260 229 269 266 170 265 277 282 284 291 309 281 270 332 335 16 308 16 248 227 264 230 245 224 205 169 154 181 127 64 269 186 54 143 206 134 105
237 241 241 241 237 253 262 264 274 259 249 231 259 271 309 217 288 306 282 269 263 272 132 255 274 132 344 21 348 334 283 314 239 232 226 161 179 174 181 200 273 280 236 167 171 129 125